AST,Max TemperatureF,Mean TemperatureF,Min TemperatureF,Max Dew PointF,MeanDew PointF,Min DewpointF,Max Humidity, Mean Humidity, Min Humidity, Max Sea Level PressureIn, Mean Sea Level PressureIn, Min Sea Level PressureIn, Max VisibilityMiles, Mean VisibilityMiles, Min VisibilityMiles, Max Wind SpeedMPH, Mean Wind SpeedMPH, Max Gust SpeedMPH,PrecipitationIn, CloudCover, Events, WindDirDegrees
2013-3-1,82,76,70,68,66,64,84,73,62,30.01,29.94,29.90,10,10,10,12,5,16,0.00,2,,135
2013-3-2,82,76,69,70,65,62,79,69,58,29.99,29.94,29.89,10,10,10,13,7,16,0.00,1,,137
2013-3-3,84,81,77,75,72,69,85,80,74,30.02,29.96,29.91,10,10,10,15,10,17,0.00,3,,167
2013-3-4,83,79,74,75,73,72,100,87,74,30.06,30.00,29.96,10,9,2,14,4,18,T,4,Rain,163
2013-3-5,79,76,72,72,70,65,100,87,74,30.09,30.04,29.99,10,9,3,25,10,33,0.00,8,Rain,25
2013-3-6,82,79,75,70,67,64,82,72,62,30.08,30.03,29.99,10,10,9,18,10,29,0.00,6,,69
2013-3-7,83,78,73,73,72,70,88,79,69,30.06,30.02,29.97,10,10,10,13,3,16,0.00,1,,155
2013-3-8,84,79,74,74,70,67,94,80,65,30.06,30.01,29.97,10,10,10,14,5,21,0.00,6,,9
2013-3-9,83,77,71,69,67,65,84,73,62,30.04,30.00,29.95,10,10,10,22,9,36,0.00,2,,4
2013-3-10,83,79,75,66,64,61,74,63,51,30.02,29.97,29.93,10,10,10,18,11,30,0.00,3,,4
2013-3-11,82,78,73,63,61,59,68,60,51,30.03,29.98,29.93,10,10,10,16,8,28,0.00,2,,40
2013-3-12,83,78,73,63,60,56,68,55,42,30.07,30.02,29.97,10,10,10,18,8,29,0.00,5,,69
2013-3-13,80,77,74,62,58,54,64,55,45,30.06,30.01,29.97,10,10,10,16,7,22,0.00,7,,82
2013-3-14,82,76,70,63,59,55,64,55,45,30.03,29.97,29.91,10,10,10,14,6,18,0.00,6,,91
2013-3-15,83,77,70,64,61,56,68,55,42,30.03,29.97,29.93,10,10,10,16,7,23,0.00,4,,51
2013-3-16,85,79,73,68,64,60,69,69,69,30.06,30.01,29.97,10,10,8,18,9,30,T,4,Rain,67
2013-3-17,84,78,72,69,66,62,81,68,53,30.11,30.05,30.01,10,10,10,20,11,25,0.01,5,Rain,102
2013-3-18,85,79,72,72,69,65,94,78,53,30.09,30.04,30.01,10,8,1,24,12,31,0.57,6,Rain,80
2013-3-19,82,78,73,71,69,67,87,76,59,30.04,29.99,29.94,10,10,8,18,10,23,0.04,5,Rain,112
2013-3-20,83,78,73,71,70,69,87,76,67,29.99,29.95,29.90,10,10,10,16,10,21,T,2,,126
2013-3-21,83,80,76,74,71,68,88,76,65,29.99,29.92,29.88,10,10,10,16,13,23,0.00,5,,135
2013-3-22,84,80,75,74,73,72,94,80,67,30.05,29.99,29.93,10,10,10,13,7,18,0.00,1,,124
2013-3-23,86,81,76,73,72,70,91,74,54,30.07,30.02,29.97,10,10,10,14,7,20,0.00,2,,94
2013-3-24,84,79,74,72,70,69,87,74,59,30.04,29.97,29.91,10,10,10,18,9,22,0.00,3,,118
2013-3-25,84,81,77,74,71,69,84,74,59,30.02,29.96,29.90,10,10,10,16,12,23,0.00,3,,131
2013-3-26,84,80,76,74,72,71,90,80,67,30.05,30.00,29.95,10,10,6,17,9,21,0.01,4,Rain,137
2013-3-27,84,79,74,72,71,70,87,76,62,30.06,30.01,29.96,10,10,10,15,6,18,0.00,1,,132
2013-3-28,88,81,73,72,70,66,91,73,51,30.04,29.99,29.95,10,10,10,15,5,26,0.00,3,,72
2013-3-29,83,79,74,73,70,68,94,80,62,30.12,30.05,29.99,10,9,2,22,7,33,0.32,5,Rain,64
2013-3-30,85,80,74,72,68,66,94,72,56,30.12,30.09,30.05,10,10,2,23,15,32,0.13,6,Rain,75
2013-3-31,82,77,72,73,71,70,100,85,65,30.15,30.10,30.06,10,8,2,26,13,36,0.61,6,Rain,98